Location: Newark
(23.1300°N, 73.6109°E)
Time: 17:10:13
(UTC+00:00)

NOAA 18 - Pass Details

Date: 03 July 2020
Orbit: 839 x 862 km, 99.0° (Epoch: 05 August)

Event Time Altitude Azimuth Distance (km) Brightness Sun altitude
Exits shadow 16:07:16 72° 150° (SSE) 902 5.1 -26.1°
Maximum altitude 16:07:52 85° 76° (ENE) 867 5.1 -26.2°
Drops below altitude 10° 16:13:25 10° 349° (NNW) 2,494 8.3 -27.1°
Sets 16:15:47 0° 348° (NNW) 3,430 9.2 -27.5°
